Riverside, CA

8:04 AM PST on January 16, 2017 (GMT -0800)
Riverside Municipal

Weather History for KRAL - October, 2014

Change the Weather History Date:

Sunday, October 12, 2014

  Actual Average Record
Temperature  
Mean Temperature 73 °F 69 °F  
Max Temperature 86 °F 83 °F 107 °F (1950)
Min Temperature 60 °F 56 °F 35 °F (1924)
Degree Days  
Heating Degree Days 0 1  
Month to date heating degree days 0 2  
Since 1 July heating degree days 0 4  
Cooling Degree Days 8 5  
Month to date cooling degree days 146 75  
Year to date cooling degree days 2189 1667  
Growing Degree Days 22 (Base 50)    
Moisture  
Dew Point 58 °F    
Average Humidity 62    
Maximum Humidity 90    
Minimum Humidity 34    
Precipitation  
Precipitation 0.00 in 0.01 in 0.41 in (1928)
Month to date precipitation 0.00 0.05  
Year to date precipitation 2.09 9.64  
Since 1 July precipitation 0.37  
Snow  
Snow 0.00 in - - ()
Month to date snowfall 0.0  
Year to date snowfall 0.0  
Snow Depth 0.00 in    
Sea Level Pressure  
Sea Level Pressure 29.86 in    
Wind  
Wind Speed 3 mph (West)    
Max Wind Speed 12 mph    
Max Gust Speed 16 mph    
Visibility 8 miles    
Events      
T = Trace of Precipitation, MM = Missing Value Source: NWS Daily Summary

Daily Weather History Graph

Daily Weather History Graph

Search for Another Location

Airport or City:

Trip Planner

Search our weather history database for the weather conditions in past years. The results will help you decide how hot, cold, wet, or windy it might be!

Date:

Astronomy

Oct. 12, 2014 Rise Set
Actual Time 6:52 AM PDT 6:19 PM PDT
Civil Twilight 6:27 AM PDT 6:44 PM PDT
Nautical Twilight 5:58 AM PDT 7:13 PM PDT
Astronomical Twilight 5:29 AM PDT 7:42 PM PDT
Moon 9:50 PM PDT (10/12) 11:09 AM PDT (10/12)
Length of Visible Light 12h 17m
Length of Day
11h 26m
Waning Gibbous, 78% of the Moon is Illuminated
Oct 12
Waning Gibbous
Oct 15
Last Quarter
Oct 23
New
Oct 30
First Quarter
Nov 6
Full

Hourly Weather History & Observations

Time (PDT) Temp. Heat Index Dew Point Humidity Pressure Visibility Wind Dir Wind Speed Gust Speed Precip Events Conditions
12:53 AM 64.9 °F - 59.0 °F 81% 29.88 in 6.0 mi Calm Calm - N/A   Haze
1:53 AM 64.0 °F - 57.9 °F 80% 29.88 in 7.0 mi Calm Calm - N/A   Clear
2:53 AM 63.0 °F - 57.9 °F 84% 29.87 in 6.0 mi Calm Calm - N/A   Haze
3:53 AM 63.0 °F - 57.9 °F 84% 29.85 in 5.0 mi Calm Calm - N/A   Haze
4:53 AM 62.1 °F - 57.9 °F 86% 29.85 in 5.0 mi Calm Calm - N/A   Clear
5:53 AM 61.0 °F - 57.0 °F 87% 29.86 in 5.0 mi Calm Calm - N/A   Clear
6:53 AM 60.1 °F - 57.0 °F 90% 29.88 in 5.0 mi Calm Calm - N/A   Clear
7:53 AM 62.1 °F - 57.0 °F 84% 29.88 in 4.0 mi Calm Calm - N/A   Haze
8:53 AM 66.0 °F - 55.9 °F 70% 29.89 in 5.0 mi Calm Calm - N/A   Haze
9:53 AM 69.1 °F - 59.0 °F 70% 29.89 in 4.0 mi WNW 3.5 mph - N/A   Haze
10:53 AM 73.0 °F - 60.1 °F 64% 29.87 in 4.0 mi West 4.6 mph - N/A   Haze
11:53 AM 77.0 °F - 57.9 °F 52% 29.86 in 5.0 mi West 8.1 mph - N/A   Haze
12:53 PM 82.0 °F 81.7 °F 57.0 °F 42% 29.84 in 8.0 mi WNW 5.8 mph - N/A   Clear
1:53 PM 84.0 °F 82.6 °F 54.0 °F 35% 29.81 in 10.0 mi Variable 5.8 mph - N/A   Clear
2:53 PM 84.9 °F 83.7 °F 55.9 °F 37% 29.80 in 10.0 mi WNW 8.1 mph - N/A   Clear
3:53 PM 84.9 °F 83.9 °F 57.0 °F 38% 29.79 in 10.0 mi WNW 8.1 mph - N/A   Clear
4:53 PM 82.0 °F 81.6 °F 55.9 °F 41% 29.80 in 10.0 mi West 11.5 mph 16.1 mph N/A   Clear
5:53 PM 78.1 °F - 57.9 °F 50% 29.82 in 10.0 mi West 11.5 mph - N/A   Clear
6:53 PM 73.9 °F - 59.0 °F 59% 29.85 in 10.0 mi West 6.9 mph - N/A   Clear
7:53 PM 72.0 °F - 60.1 °F 66% 29.88 in 10.0 mi WNW 3.5 mph - N/A   Clear
8:53 PM 70.0 °F - 60.1 °F 71% 29.89 in 10.0 mi West 3.5 mph - N/A   Clear
9:53 PM 68.0 °F - 60.1 °F 76% 29.91 in 10.0 mi Calm Calm - N/A   Clear
10:53 PM 66.0 °F - 60.1 °F 81% 29.91 in 10.0 mi Calm Calm - N/A   Clear
11:53 PM 64.9 °F - 60.1 °F 84% 29.92 in 10.0 mi Calm Calm - N/A   Clear